{"data":{"norad_id":64239,"intl_designator":"2025-119G","name":"STARLINK-11683 [DTC]","alt_names":[],"object_type":"PAYLOAD","status":"ACTIVE","operator":null,"country":"US","launch_date":"2025-06-03","launch_site_code":"AFETR","launch_vehicle":null,"mission":null,"orbit_class":"UNKNOWN","rcs_meters":null,"size_class":null,"mass_kg":null,"dimensions":null,"purposes":["comms"],"wikipedia_slug":null,"has_3d_model":false,"image_url":null,"decayed_at":null,"tle_current":{"epoch":"2026-05-24T21:31:36.475680Z","epoch_age_seconds":87030,"freshness":"FRESH","line1":"1 64239U 25119G   26144.89694995  .00165145  00000+0  12594-2 0  9992","line2":"2 64239  42.9975 109.4483 0000817 166.9740 193.1149 15.70948350 57237","mean_motion":15.7094835,"eccentricity":8.17e-5,"inclination_deg":42.9975,"raan_deg":109.4483,"arg_perigee_deg":166.974,"mean_anomaly_deg":193.1149,"bstar":0.0012594,"rev_number":5723,"period_min":91.664375852968,"perigee_km":355.6352006504,"apogee_km":356.73558892971,"semimajor_km":6734.3223947901,"source":"CELESTRAK","updated_at":"2026-05-25T13:38:20.352019Z"}}}